7 * 24
多渠道服务支持
NAVSTAR 28(又名USA 85,GPS BIIA-16,SVN 32,NORAD ID 22231),是美国于1992年11月22日在佛罗里达州空军东部试验靶场发射的GPS导航卫星,隶属于美国NAVSTAR全球定位系统。该卫星属于第二代GPS卫星,主要为全球用户提供定位、导航与授时服务,帮助用户获取精准的位置与时间信息,曾是GPS空间星座的重要组成部分,支撑全球定位服务的稳定运行。
美国
(US)
| 数据来源 | 国际轨道数据 |
| 星历时间: | 2026-09-09T10:26:20+0800 2天前 查看轨道信息 |
| 半长轴: | 27622.393km |
| 偏心率: | 0.0024857 |
| 轨道倾角: | 55.592° |
| 近地点辐角 | 8.219° |
| 升交点赤经 | 110.927° |
| 平近点角 | 351.918° |
| 近地点: | 21175.595km |
| 远地点: | 21312.917km |
| 周期: | 761.468分钟 |
| 每日圈数: | 1.891084 |